User: anonymous   Login
Location: Unspecified
(0.0000°N, 0.0000°E)
Time: 17:24:49
(UTC+00:00)
Language:

Tiangong 2 - Orbit

View from above orbital plane
View from above orbital plane
View from above satellite
View from above satellite

Ground track
Ground track

The orbit data is extracted from the following two-line orbital elements,

1 41765U 16057A   18113.03305313  .00006215  00000-0  76251-4 0  9993
2 41765  42.7855 311.7595 0004514 250.9432 244.2491 15.61039390 91368
Epoch (UTC): 23 April 2018 00:47:35
Eccentricity: 0.0004514
inclination: 42.7855°
perigee height: 381 km
apogee height: 388 km
right ascension of ascending node: 311.7595°
argument of perigee: 250.9432°
revolutions per day: 15.61039390
mean anomaly at epoch: 244.2491°
orbit number at epoch: 9136

The dashed part of the orbit path shows where the satellite is in the earth's shadow,  

DLR